Location: Baumgarten
(49.0970°N, 12.7493°E)
Time: 17:29:49
(UTC+00:00)

NOSS 3-3 (A) - Pass Details

Date: 05 July 2020
Orbit: 825 x 1387 km, 63.4° (Epoch: 07 August)

Event Time Altitude Azimuth Distance (km) Brightness Sun altitude
Rises 20:26:54 0° 194° (SSW) 3,401 6.5 -9.2°
Reaches altitude 10° 20:29:22 10° 188° (S) 2,509 5.8 -9.4°
Maximum altitude 20:34:47 42° 118° (ESE) 1,299 4.3 -10.0°
Drops below altitude 10° 20:40:51 10° 50° (NE) 2,816 6.5 -10.6°
Sets 20:43:45 0° 44° (NE) 3,863 7.3 -10.8°
